This is the latest recevied weather packets stored in our database for station/object ED1ZAI-13. If no packets are shown the sender has not sent any weather packets the latest 10 day(s).
| Time | Temp. | Humidity | Pressure | Rain* | Wind** | Luminosity | Snow |
|---|---|---|---|---|---|---|---|
| 1777789570 | 12.78° C | 80% | 1013.1 hPa | 0 mm | - | - | - |
| 1777788970 | 12.78° C | 80% | 1013.1 hPa | 0 mm | - | - | - |
| 1777788369 | 12.22° C | 81% | 1013.2 hPa | 0 mm | - | - | - |
| 1777787769 | 11.67° C | 81% | 1013.2 hPa | 0 mm | - | - | - |
| 1777787170 | 12.22° C | 80% | 1013.1 hPa | 0 mm | - | - | - |
| 1777786570 | 11.67° C | 80% | 1013.1 hPa | 0 mm | - | - | - |
| 1777785969 | 12.22° C | 79% | 1013 hPa | 0 mm | - | - | - |
| 1777785369 | 12.22° C | 80% | 1013 hPa | 0 mm | - | - | - |
| 1777784770 | 12.22° C | 79% | 1012.9 hPa | 0 mm | - | - | - |
| 1777784170 | 12.22° C | 81% | 1013 hPa | 0 mm | - | - | - |
| 1777783569 | 12.22° C | 81% | 1013.1 hPa | 0 mm | - | - | - |
| 1777782969 | 11.67° C | 81% | 1013.1 hPa | 0 mm | - | - | - |
| 1777782369 | 11.67° C | 81% | 1013.2 hPa | 0 mm | - | - | - |
| 1777781768 | 11.67° C | 80% | 1013.1 hPa | 0 mm | - | - | - |
| 1777781562 | 11.67° C | 80% | 1013.1 hPa | 0 mm | - | - | - |
| 1777780960 | 11.11° C | 83% | 1013.4 hPa | 0 mm | - | - | - |
| 1777780362 | 11.67° C | 84% | 1013.5 hPa | 0 mm | - | - | - |
| 1777779761 | 10.56° C | 83% | 1013.8 hPa | 0 mm | - | - | - |
| 1777779161 | 11.11° C | 84% | 1013.8 hPa | 0 mm | - | - | - |
| 1777778562 | 11.67° C | 82% | 1013.6 hPa | 0 mm | - | - | - |
| 1777777961 | 11.67° C | 81% | 1013.5 hPa | 0 mm | - | - | - |
| 1777777361 | 11.67° C | 82% | 1013.5 hPa | 0 mm | - | - | - |
| 1777776792 | 11.67° C | 82% | 1013.5 hPa | 0 mm | - | - | - |
| 1777776192 | 11.67° C | 82% | 1013.6 hPa | 0 mm | - | - | - |
| 1777775594 | 11.67° C | 81% | 1013.6 hPa | 0 mm | - | - | - |
* Rain latest hour (hover to see other rain measurements)
** Current wind speed in m/s (hover to see current wind gust speed)